Time,TemperatureF,DewpointF,PressureIn,WindDirection,WindDirectionDegrees,WindSpeedMPH,WindSpeedGustMPH,Humidity,HourlyPrecipIn,Conditions,Clouds,dailyrainin,SoftwareType,DateUTC
2013-03-06 00:00:00,50.2,31.3,30.27,NW,325,7.0,-999.0,48,0.00,,,0.00,WeatherSnoop3.0,2013-03-06 06:00:00,
2013-03-06 00:05:00,49.6,31.2,30.27,NW,315,6.0,-999.0,49,0.00,,,0.00,WeatherSnoop3.0,2013-03-06 06:05:00,
2013-03-06 00:10:00,49.4,31.1,30.27,NNW,334,9.0,-999.0,49,0.00,,,0.00,WeatherSnoop3.0,2013-03-06 06:10:00,
2013-03-06 00:15:00,49.3,31.0,30.27,NNW,327,7.0,-999.0,49,0.00,,,0.00,WeatherSnoop3.0,2013-03-06 06:15:00,
2013-03-06 00:20:00,49.0,31.7,30.27,NW,317,7.0,-999.0,51,0.00,,,0.00,WeatherSnoop3.0,2013-03-06 06:20:00,
2013-03-06 00:25:00,48.5,31.2,30.27,NW,325,5.0,-999.0,51,0.00,,,0.00,WeatherSnoop3.0,2013-03-06 06:25:00,
2013-03-06 00:30:00,48.5,30.7,30.27,NNW,327,7.0,-999.0,50,0.00,,,0.00,WeatherSnoop3.0,2013-03-06 06:30:00,
2013-03-06 00:35:00,48.5,30.7,30.27,North,355,9.0,-999.0,50,0.00,,,0.00,WeatherSnoop3.0,2013-03-06 06:35:00,
2013-03-06 00:40:00,48.1,31.8,30.27,NNW,327,4.0,-999.0,53,0.00,,,0.00,WeatherSnoop3.0,2013-03-06 06:40:00,
2013-03-06 00:45:00,48.0,30.7,30.27,NNW,331,5.0,-999.0,51,0.00,,,0.00,WeatherSnoop3.0,2013-03-06 06:45:00,
2013-03-06 00:50:00,47.7,31.4,30.27,NNW,333,0.0,-999.0,53,0.00,,,0.00,WeatherSnoop3.0,2013-03-06 06:50:00,
2013-03-06 00:55:00,47.2,31.4,30.27,NNW,328,5.0,-999.0,54,0.00,,,0.00,WeatherSnoop3.0,2013-03-06 06:55:00,
2013-03-06 01:00:00,46.8,31.5,30.28,NNW,343,4.0,-999.0,55,0.00,,,0.00,WeatherSnoop3.0,2013-03-06 07:00:00,
2013-03-06 01:05:00,46.1,31.3,30.28,NNW,327,0.0,-999.0,56,0.00,,,0.00,WeatherSnoop3.0,2013-03-06 07:05:00,
2013-03-06 01:10:00,45.6,31.7,30.28,NNW,341,2.0,-999.0,58,0.00,,,0.00,WeatherSnoop3.0,2013-03-06 07:10:00,
2013-03-06 01:15:00,45.2,30.9,30.28,NNW,348,3.0,-999.0,57,0.00,,,0.00,WeatherSnoop3.0,2013-03-06 07:15:00,
2013-03-06 01:20:00,45.3,31.0,30.28,NNW,330,0.0,-999.0,57,0.00,,,0.00,WeatherSnoop3.0,2013-03-06 07:20:00,
2013-03-06 01:25:00,45.3,31.0,30.27,North,349,0.0,-999.0,57,0.00,,,0.00,WeatherSnoop3.0,2013-03-06 07:25:00,
2013-03-06 01:30:00,45.1,31.2,30.28,NNW,348,0.0,-999.0,58,0.00,,,0.00,WeatherSnoop3.0,2013-03-06 07:30:00,
2013-03-06 01:35:00,44.3,31.7,30.27,NNW,348,0.0,-999.0,61,0.00,,,0.00,WeatherSnoop3.0,2013-03-06 07:35:00,
2013-03-06 01:40:00,43.5,31.4,30.28,NNW,348,0.0,-999.0,62,0.00,,,0.00,WeatherSnoop3.0,2013-03-06 07:40:00,
2013-03-06 01:45:00,42.9,31.2,30.28,North,355,0.0,-999.0,63,0.00,,,0.00,WeatherSnoop3.0,2013-03-06 07:45:00,
2013-03-06 01:50:00,42.6,31.3,30.28,NNW,345,0.0,-999.0,64,0.00,,,0.00,WeatherSnoop3.0,2013-03-06 07:50:00,
2013-03-06 01:55:00,42.8,31.5,30.28,NNW,334,0.0,-999.0,64,0.00,,,0.00,WeatherSnoop3.0,2013-03-06 07:55:00,
2013-03-06 02:00:00,42.7,31.0,30.28,NNW,335,0.0,-999.0,63,0.00,,,0.00,WeatherSnoop3.0,2013-03-06 08:00:00,
2013-03-06 02:05:00,42.7,31.4,30.28,NNW,338,1.0,-999.0,64,0.00,,,0.00,WeatherSnoop3.0,2013-03-06 08:05:00,
2013-03-06 02:10:00,42.8,30.7,30.28,NNW,338,0.0,-999.0,62,0.00,,,0.00,WeatherSnoop3.0,2013-03-06 08:10:00,
2013-03-06 02:15:00,42.9,30.8,30.27,NNW,338,0.0,-999.0,62,0.00,,,0.00,WeatherSnoop3.0,2013-03-06 08:15:00,
2013-03-06 02:20:00,42.9,31.2,30.28,NNW,347,0.0,-999.0,63,0.00,,,0.00,WeatherSnoop3.0,2013-03-06 08:20:00,
2013-03-06 02:25:00,42.6,31.3,30.28,North,351,0.0,-999.0,64,0.00,,,0.00,WeatherSnoop3.0,2013-03-06 08:25:00,
2013-03-06 02:30:00,42.3,31.0,30.27,North,351,0.0,-999.0,64,0.00,,,0.00,WeatherSnoop3.0,2013-03-06 08:30:00,
2013-03-06 02:35:00,42.1,31.6,30.27,North,351,0.0,-999.0,66,0.00,,,0.00,WeatherSnoop3.0,2013-03-06 08:35:00,
2013-03-06 02:40:00,41.8,31.3,30.28,North,355,0.0,-999.0,66,0.00,,,0.00,WeatherSnoop3.0,2013-03-06 08:40:00,
2013-03-06 02:45:00,41.6,31.5,30.27,North,351,0.0,-999.0,67,0.00,,,0.00,WeatherSnoop3.0,2013-03-06 08:45:00,
2013-03-06 02:50:00,41.3,31.2,30.27,North,355,0.0,-999.0,67,0.00,,,0.00,WeatherSnoop3.0,2013-03-06 08:50:00,
2013-03-06 02:55:00,41.3,31.2,30.28,North,351,0.0,-999.0,67,0.00,,,0.00,WeatherSnoop3.0,2013-03-06 08:55:00,
2013-03-06 03:00:00,41.1,31.0,30.28,NW,317,0.0,-999.0,67,0.00,,,0.00,WeatherSnoop3.0,2013-03-06 09:00:00,
2013-03-06 03:05:00,41.1,31.0,30.28,NW,317,0.0,-999.0,67,0.00,,,0.00,WeatherSnoop3.0,2013-03-06 09:05:00,
2013-03-06 03:10:00,41.1,31.0,30.29,NW,317,0.0,-999.0,67,0.00,,,0.00,WeatherSnoop3.0,2013-03-06 09:10:00,
2013-03-06 03:15:00,41.1,30.6,30.29,NW,325,3.0,-999.0,66,0.00,,,0.00,WeatherSnoop3.0,2013-03-06 09:15:00,
2013-03-06 03:20:00,41.1,30.6,30.29,NNW,328,0.0,-999.0,66,0.00,,,0.00,WeatherSnoop3.0,2013-03-06 09:20:00,
2013-03-06 03:25:00,41.1,30.2,30.29,NNW,328,0.0,-999.0,65,0.00,,,0.00,WeatherSnoop3.0,2013-03-06 09:25:00,
2013-03-06 03:30:00,41.1,30.6,30.29,NNW,328,0.0,-999.0,66,0.00,,,0.00,WeatherSnoop3.0,2013-03-06 09:30:00,
2013-03-06 03:35:00,40.9,30.8,30.29,NNW,328,0.0,-999.0,67,0.00,,,0.00,WeatherSnoop3.0,2013-03-06 09:35:00,
2013-03-06 03:40:00,40.7,30.6,30.29,NNW,328,0.0,-999.0,67,0.00,,,0.00,WeatherSnoop3.0,2013-03-06 09:40:00,
2013-03-06 03:45:00,40.5,30.8,30.29,NNW,328,0.0,-999.0,68,0.00,,,0.00,WeatherSnoop3.0,2013-03-06 09:45:00,
2013-03-06 03:50:00,40.2,30.5,30.29,NNW,328,0.0,-999.0,68,0.00,,,0.00,WeatherSnoop3.0,2013-03-06 09:50:00,
2013-03-06 03:55:00,39.9,30.6,30.29,NNW,328,0.0,-999.0,69,0.00,,,0.00,WeatherSnoop3.0,2013-03-06 09:55:00,
2013-03-06 04:00:00,39.8,30.5,30.30,NNW,329,0.0,-999.0,69,0.00,,,0.00,WeatherSnoop3.0,2013-03-06 10:00:00,
2013-03-06 04:05:00,39.8,30.1,30.30,NNW,327,0.0,-999.0,68,0.00,,,0.00,WeatherSnoop3.0,2013-03-06 10:05:00,
2013-03-06 04:10:00,39.9,29.8,30.30,NNW,328,0.0,-999.0,67,0.00,,,0.00,WeatherSnoop3.0,2013-03-06 10:10:00,
2013-03-06 04:15:00,39.8,29.4,30.31,NNW,327,0.0,-999.0,66,0.00,,,0.00,WeatherSnoop3.0,2013-03-06 10:15:00,
2013-03-06 04:20:00,39.7,29.3,30.31,NNW,328,0.0,-999.0,66,0.00,,,0.00,WeatherSnoop3.0,2013-03-06 10:20:00,
2013-03-06 04:25:00,39.7,29.7,30.31,NNW,328,0.0,-999.0,67,0.00,,,0.00,WeatherSnoop3.0,2013-03-06 10:25:00,
2013-03-06 04:30:00,39.6,29.6,30.31,NNW,327,0.0,-999.0,67,0.00,,,0.00,WeatherSnoop3.0,2013-03-06 10:30:00,
2013-03-06 04:35:00,39.3,29.6,30.31,NNW,328,0.0,-999.0,68,0.00,,,0.00,WeatherSnoop3.0,2013-03-06 10:35:00,
2013-03-06 04:40:00,39.1,29.4,30.32,NNW,328,0.0,-999.0,68,0.00,,,0.00,WeatherSnoop3.0,2013-03-06 10:40:00,
2013-03-06 04:45:00,39.0,29.7,30.32,NNW,328,0.0,-999.0,69,0.00,,,0.00,WeatherSnoop3.0,2013-03-06 10:45:00,
2013-03-06 04:50:00,39.1,29.8,30.32,NNW,327,0.0,-999.0,69,0.00,,,0.00,WeatherSnoop3.0,2013-03-06 10:50:00,
2013-03-06 04:55:00,39.2,29.9,30.32,NNW,328,0.0,-999.0,69,0.00,,,0.00,WeatherSnoop3.0,2013-03-06 10:55:00,
2013-03-06 05:00:00,39.1,30.2,30.33,NNW,329,0.0,-999.0,70,0.00,,,0.00,WeatherSnoop3.0,2013-03-06 11:00:00,
2013-03-06 05:05:00,38.7,30.1,30.33,NNW,341,0.0,-999.0,71,0.00,,,0.00,WeatherSnoop3.0,2013-03-06 11:05:00,
2013-03-06 05:10:00,38.7,30.1,30.33,NNW,339,0.0,-999.0,71,0.00,,,0.00,WeatherSnoop3.0,2013-03-06 11:10:00,
2013-03-06 05:15:00,38.8,30.2,30.33,NNW,338,0.0,-999.0,71,0.00,,,0.00,WeatherSnoop3.0,2013-03-06 11:15:00,
2013-03-06 05:20:00,38.8,30.2,30.33,NNW,338,0.0,-999.0,71,0.00,,,0.00,WeatherSnoop3.0,2013-03-06 11:20:00,
2013-03-06 05:25:00,38.7,30.1,30.33,NNW,339,0.0,-999.0,71,0.00,,,0.00,WeatherSnoop3.0,2013-03-06 11:25:00,
2013-03-06 05:30:00,38.6,30.0,30.33,NNW,338,0.0,-999.0,71,0.00,,,0.00,WeatherSnoop3.0,2013-03-06 11:30:00,
2013-03-06 05:35:00,38.4,30.2,30.33,NNW,338,0.0,-999.0,72,0.00,,,0.00,WeatherSnoop3.0,2013-03-06 11:35:00,
2013-03-06 05:40:00,38.4,30.2,30.34,NNW,338,0.0,-999.0,72,0.00,,,0.00,WeatherSnoop3.0,2013-03-06 11:40:00,
2013-03-06 05:45:00,38.3,30.1,30.34,NNW,338,0.0,-999.0,72,0.00,,,0.00,WeatherSnoop3.0,2013-03-06 11:45:00,
2013-03-06 05:50:00,38.2,30.0,30.34,NNW,338,0.0,-999.0,72,0.00,,,0.00,WeatherSnoop3.0,2013-03-06 11:50:00,
2013-03-06 05:55:00,38.1,29.9,30.34,NNW,338,0.0,-999.0,72,0.00,,,0.00,WeatherSnoop3.0,2013-03-06 11:55:00,
2013-03-06 06:00:00,37.8,29.6,30.34,NNW,339,0.0,-999.0,72,0.00,,,0.00,WeatherSnoop3.0,2013-03-06 12:00:00,
2013-03-06 06:05:00,37.5,29.6,30.34,NNW,338,0.0,-999.0,73,0.00,,,0.00,WeatherSnoop3.0,2013-03-06 12:05:00,
2013-03-06 06:10:00,37.3,29.5,30.35,NNW,338,0.0,-999.0,73,0.00,,,0.00,WeatherSnoop3.0,2013-03-06 12:10:00,
2013-03-06 06:15:00,37.0,29.2,30.34,NNW,338,0.0,-999.0,73,0.00,,,0.00,WeatherSnoop3.0,2013-03-06 12:15:00,
2013-03-06 06:20:00,36.8,29.0,30.34,NNW,338,0.0,-999.0,73,0.00,,,0.00,WeatherSnoop3.0,2013-03-06 12:20:00,
2013-03-06 06:25:00,36.6,29.1,30.34,NNW,338,0.0,-999.0,74,0.00,,,0.00,WeatherSnoop3.0,2013-03-06 12:25:00,
2013-03-06 06:30:00,36.6,29.1,30.35,NNW,338,0.0,-999.0,74,0.00,,,0.00,WeatherSnoop3.0,2013-03-06 12:30:00,
2013-03-06 06:35:00,36.5,29.0,30.35,NNW,338,0.0,-999.0,74,0.00,,,0.00,WeatherSnoop3.0,2013-03-06 12:35:00,
2013-03-06 06:40:00,36.4,28.9,30.35,NNW,338,0.0,-999.0,74,0.00,,,0.00,WeatherSnoop3.0,2013-03-06 12:40:00,
2013-03-06 06:45:00,36.2,28.7,30.35,NNW,338,0.0,-999.0,74,0.00,,,0.00,WeatherSnoop3.0,2013-03-06 12:45:00,
2013-03-06 06:50:00,36.0,28.9,30.35,NNW,338,0.0,-999.0,75,0.00,,,0.00,WeatherSnoop3.0,2013-03-06 12:50:00,
2013-03-06 06:55:00,35.9,29.1,30.36,NNW,338,0.0,-999.0,76,0.00,,,0.00,WeatherSnoop3.0,2013-03-06 12:55:00,
2013-03-06 07:00:00,35.7,29.2,30.36,NNW,338,0.0,-999.0,77,0.00,,,0.00,WeatherSnoop3.0,2013-03-06 13:00:00,
2013-03-06 07:05:00,35.7,29.2,30.36,NNW,338,0.0,-999.0,77,0.00,,,0.00,WeatherSnoop3.0,2013-03-06 13:05:00,
2013-03-06 07:10:00,35.7,29.2,30.36,NNW,338,0.0,-999.0,77,0.00,,,0.00,WeatherSnoop3.0,2013-03-06 13:10:00,
2013-03-06 07:15:00,35.9,29.4,30.36,NNW,337,0.0,-999.0,77,0.00,,,0.00,WeatherSnoop3.0,2013-03-06 13:15:00,
2013-03-06 07:20:00,36.7,30.2,30.36,NNW,338,0.0,-999.0,77,0.00,,,0.00,WeatherSnoop3.0,2013-03-06 13:20:00,
2013-03-06 07:25:00,37.8,31.6,30.36,NNW,338,0.0,-999.0,78,0.00,,,0.00,WeatherSnoop3.0,2013-03-06 13:25:00,
2013-03-06 07:30:00,38.5,31.9,30.37,NNW,338,0.0,-999.0,77,0.00,,,0.00,WeatherSnoop3.0,2013-03-06 13:30:00,
2013-03-06 07:35:00,39.3,32.7,30.37,NNW,338,0.0,-999.0,77,0.00,,,0.00,WeatherSnoop3.0,2013-03-06 13:35:00,
2013-03-06 07:40:00,40.0,32.4,30.38,NNW,338,0.0,-999.0,74,0.00,,,0.00,WeatherSnoop3.0,2013-03-06 13:40:00,
2013-03-06 07:45:00,40.8,33.2,30.38,NNW,338,0.0,-999.0,74,0.00,,,0.00,WeatherSnoop3.0,2013-03-06 13:45:00,
2013-03-06 07:50:00,42.0,32.9,30.38,North,355,4.0,-999.0,70,0.00,,,0.00,WeatherSnoop3.0,2013-03-06 13:50:00,
2013-03-06 07:55:00,42.8,32.6,30.38,NW,326,4.0,-999.0,67,0.00,,,0.00,WeatherSnoop3.0,2013-03-06 13:55:00,
2013-03-06 08:00:00,43.3,32.0,30.38,NW,324,7.0,-999.0,64,0.00,,,0.00,WeatherSnoop3.0,2013-03-06 14:00:00,
2013-03-06 08:05:00,43.8,32.4,30.38,NNW,347,3.0,-999.0,64,0.00,,,0.00,WeatherSnoop3.0,2013-03-06 14:05:00,
2013-03-06 08:10:00,44.3,32.9,30.39,NNW,341,0.0,-999.0,64,0.00,,,0.00,WeatherSnoop3.0,2013-03-06 14:10:00,
2013-03-06 08:15:00,44.7,32.5,30.38,NW,318,8.0,-999.0,62,0.00,,,0.00,WeatherSnoop3.0,2013-03-06 14:15:00,
2013-03-06 08:20:00,45.0,32.0,30.38,NW,315,3.0,-999.0,60,0.00,,,0.00,WeatherSnoop3.0,2013-03-06 14:20:00,
2013-03-06 08:25:00,45.4,32.3,30.38,NW,314,2.0,-999.0,60,0.00,,,0.00,WeatherSnoop3.0,2013-03-06 14:25:00,
2013-03-06 08:30:00,45.6,31.3,30.38,NNW,329,3.0,-999.0,57,0.00,,,0.00,WeatherSnoop3.0,2013-03-06 14:30:00,
2013-03-06 08:35:00,46.1,33.0,30.38,NNW,329,8.0,-999.0,60,0.00,,,0.00,WeatherSnoop3.0,2013-03-06 14:35:00,
2013-03-06 08:40:00,46.4,32.4,30.38,North,355,3.0,-999.0,58,0.00,,,0.00,WeatherSnoop3.0,2013-03-06 14:40:00,
2013-03-06 08:45:00,46.7,31.4,30.38,NNW,329,4.0,-999.0,55,0.00,,,0.00,WeatherSnoop3.0,2013-03-06 14:45:00,
2013-03-06 08:50:00,47.0,31.7,30.38,NNW,337,8.0,-999.0,55,0.00,,,0.00,WeatherSnoop3.0,2013-03-06 14:50:00,
2013-03-06 08:55:00,47.4,31.6,30.38,NNE,20,3.0,-999.0,54,0.00,,,0.00,WeatherSnoop3.0,2013-03-06 14:55:00,
2013-03-06 09:00:00,47.6,30.9,30.38,NNE,26,5.0,-999.0,52,0.00,,,0.00,WeatherSnoop3.0,2013-03-06 15:00:00,
2013-03-06 09:05:00,47.6,30.4,30.38,NNE,17,2.0,-999.0,51,0.00,,,0.00,WeatherSnoop3.0,2013-03-06 15:05:00,
2013-03-06 09:19:00,47.9,30.2,30.38,North,9,6.0,-999.0,50,0.00,,,0.00,WeatherSnoop3.0,2013-03-06 15:19:00,
2013-03-06 09:24:00,48.6,32.3,30.38,NNW,332,2.0,-999.0,53,0.00,,,0.00,WeatherSnoop3.0,2013-03-06 15:24:00,
2013-03-06 09:29:00,48.9,30.6,30.38,NNE,17,5.0,-999.0,49,0.00,,,0.00,WeatherSnoop3.0,2013-03-06 15:29:00,
2013-03-06 09:34:00,49.0,30.7,30.38,NNW,348,7.0,-999.0,49,0.00,,,0.00,WeatherSnoop3.0,2013-03-06 15:34:00,
2013-03-06 09:39:00,49.2,30.9,30.38,NNE,14,6.0,-999.0,49,0.00,,,0.00,WeatherSnoop3.0,2013-03-06 15:39:00,
2013-03-06 09:44:00,49.1,30.3,30.38,North,349,0.0,-999.0,48,0.00,,,0.00,WeatherSnoop3.0,2013-03-06 15:44:00,
2013-03-06 09:49:00,49.3,31.9,30.38,NNE,24,3.0,-999.0,51,0.00,,,0.00,WeatherSnoop3.0,2013-03-06 15:49:00,
2013-03-06 09:54:00,49.8,30.9,30.38,North,5,6.0,-999.0,48,0.00,,,0.00,WeatherSnoop3.0,2013-03-06 15:54:00,
2013-03-06 09:59:00,49.8,30.4,30.38,NNW,333,10.0,-999.0,47,0.00,,,0.00,WeatherSnoop3.0,2013-03-06 15:59:00,
2013-03-06 10:04:00,50.0,30.6,30.38,NW,317,7.0,-999.0,47,0.00,,,0.00,WeatherSnoop3.0,2013-03-06 16:04:00,
2013-03-06 10:09:00,50.0,30.6,30.38,NNW,339,2.0,-999.0,47,0.00,,,0.00,WeatherSnoop3.0,2013-03-06 16:09:00,
2013-03-06 10:14:00,50.2,32.3,30.38,North,360,0.0,-999.0,50,0.00,,,0.00,WeatherSnoop3.0,2013-03-06 16:14:00,
2013-03-06 10:19:00,50.7,32.2,30.37,NNW,343,0.0,-999.0,49,0.00,,,0.00,WeatherSnoop3.0,2013-03-06 16:19:00,
2013-03-06 10:24:00,51.1,32.1,30.38,NNE,18,1.0,-999.0,48,0.00,,,0.00,WeatherSnoop3.0,2013-03-06 16:24:00,
2013-03-06 10:30:00,51.2,32.2,30.38,NNW,340,0.0,-999.0,48,0.00,,,0.00,WeatherSnoop3.0,2013-03-06 16:30:00,
2013-03-06 10:35:00,51.6,32.0,30.38,NW,320,5.0,-999.0,47,0.00,,,0.00,WeatherSnoop3.0,2013-03-06 16:35:00,
2013-03-06 10:40:00,51.5,32.5,30.38,NW,323,6.0,-999.0,48,0.00,,,0.00,WeatherSnoop3.0,2013-03-06 16:40:00,
2013-03-06 10:45:00,51.7,33.2,30.38,NW,311,6.0,-999.0,49,0.00,,,0.00,WeatherSnoop3.0,2013-03-06 16:45:00,
2013-03-06 10:50:00,52.3,32.1,30.38,NNW,328,0.0,-999.0,46,0.00,,,0.00,WeatherSnoop3.0,2013-03-06 16:50:00,
2013-03-06 10:55:00,52.3,33.2,30.38,NW,312,4.0,-999.0,48,0.00,,,0.00,WeatherSnoop3.0,2013-03-06 16:55:00,
2013-03-06 11:00:00,52.4,32.8,30.37,NW,317,3.0,-999.0,47,0.00,,,0.00,WeatherSnoop3.0,2013-03-06 17:00:00,
2013-03-06 11:05:00,52.7,34.1,30.37,NNW,329,7.0,-999.0,49,0.00,,,0.00,WeatherSnoop3.0,2013-03-06 17:05:00,
2013-03-06 11:10:00,53.0,32.2,30.37,NW,308,9.0,-999.0,45,0.00,,,0.00,WeatherSnoop3.0,2013-03-06 17:10:00,
2013-03-06 11:15:00,52.9,30.4,30.37,NNW,329,12.0,-999.0,42,0.00,,,0.00,WeatherSnoop3.0,2013-03-06 17:15:00,
2013-03-06 11:20:00,53.0,31.1,30.36,NW,323,9.0,-999.0,43,0.00,,,0.00,WeatherSnoop3.0,2013-03-06 17:20:00,
2013-03-06 11:25:00,53.3,31.4,30.36,NNW,332,7.0,-999.0,43,0.00,,,0.00,WeatherSnoop3.0,2013-03-06 17:25:00,
2013-03-06 11:30:00,53.4,33.1,30.36,NW,323,7.0,-999.0,46,0.00,,,0.00,WeatherSnoop3.0,2013-03-06 17:30:00,
2013-03-06 11:35:00,53.9,31.9,30.36,NW,323,9.0,-999.0,43,0.00,,,0.00,WeatherSnoop3.0,2013-03-06 17:35:00,
2013-03-06 11:40:00,54.1,32.7,30.35,North,355,4.0,-999.0,44,0.00,,,0.00,WeatherSnoop3.0,2013-03-06 17:40:00,
2013-03-06 11:45:00,54.6,32.0,30.35,NNW,327,7.0,-999.0,42,0.00,,,0.00,WeatherSnoop3.0,2013-03-06 17:45:00,
2013-03-06 11:50:00,54.3,31.1,30.35,NNW,329,6.0,-999.0,41,0.00,,,0.00,WeatherSnoop3.0,2013-03-06 17:50:00,
2013-03-06 11:55:00,54.6,33.1,30.35,NW,325,1.0,-999.0,44,0.00,,,0.00,WeatherSnoop3.0,2013-03-06 17:55:00,
2013-03-06 12:00:00,55.5,33.4,30.35,NNE,20,5.0,-999.0,43,0.00,,,0.00,WeatherSnoop3.0,2013-03-06 18:00:00,
2013-03-06 12:05:00,55.7,33.0,30.35,NNW,338,4.0,-999.0,42,0.00,,,0.00,WeatherSnoop3.0,2013-03-06 18:05:00,
2013-03-06 12:10:00,55.8,34.2,30.34,NNW,346,0.0,-999.0,44,0.00,,,0.00,WeatherSnoop3.0,2013-03-06 18:10:00,
2013-03-06 12:15:00,55.9,33.7,30.34,NW,304,4.0,-999.0,43,0.00,,,0.00,WeatherSnoop3.0,2013-03-06 18:15:00,
2013-03-06 12:20:00,55.6,33.5,30.34,NW,310,7.0,-999.0,43,0.00,,,0.00,WeatherSnoop3.0,2013-03-06 18:20:00,
2013-03-06 12:25:00,55.6,33.5,30.34,NE,41,0.0,-999.0,43,0.00,,,0.00,WeatherSnoop3.0,2013-03-06 18:25:00,
2013-03-06 12:30:00,56.0,33.8,30.34,NNW,338,3.0,-999.0,43,0.00,,,0.00,WeatherSnoop3.0,2013-03-06 18:30:00,
2013-03-06 12:35:00,56.2,34.0,30.34,NW,325,0.0,-999.0,43,0.00,,,0.00,WeatherSnoop3.0,2013-03-06 18:35:00,
2013-03-06 12:40:00,56.2,32.8,30.33,WNW,287,0.0,-999.0,41,0.00,,,0.00,WeatherSnoop3.0,2013-03-06 18:40:00,
2013-03-06 12:45:00,56.7,37.2,30.33,North,360,0.0,-999.0,48,0.00,,,0.00,WeatherSnoop3.0,2013-03-06 18:45:00,
2013-03-06 12:50:00,57.4,33.9,30.33,NNW,339,0.0,-999.0,41,0.00,,,0.00,WeatherSnoop3.0,2013-03-06 18:50:00,
2013-03-06 12:55:00,57.2,33.7,30.32,NW,325,6.0,-999.0,41,0.00,,,0.00,WeatherSnoop3.0,2013-03-06 18:55:00,
2013-03-06 13:00:00,57.1,35.4,30.32,NNW,336,0.0,-999.0,44,0.00,,,0.00,WeatherSnoop3.0,2013-03-06 19:00:00,
2013-03-06 13:05:00,57.8,33.6,30.32,North,5,0.0,-999.0,40,0.00,,,0.00,WeatherSnoop3.0,2013-03-06 19:05:00,
2013-03-06 13:10:00,58.1,33.9,30.31,North,350,5.0,-999.0,40,0.00,,,0.00,WeatherSnoop3.0,2013-03-06 19:10:00,
2013-03-06 13:15:00,58.7,34.4,30.31,NE,36,3.0,-999.0,40,0.00,,,0.00,WeatherSnoop3.0,2013-03-06 19:15:00,
2013-03-06 13:20:00,59.5,37.0,30.30,North,10,0.0,-999.0,43,0.00,,,0.00,WeatherSnoop3.0,2013-03-06 19:20:00,
2013-03-06 13:25:00,59.1,32.9,30.30,NNW,341,0.0,-999.0,37,0.00,,,0.00,WeatherSnoop3.0,2013-03-06 19:25:00,
2013-03-06 13:30:00,59.3,36.2,30.30,North,5,1.0,-999.0,42,0.00,,,0.00,WeatherSnoop3.0,2013-03-06 19:30:00,
2013-03-06 13:35:00,59.7,34.7,30.29,NW,319,7.0,-999.0,39,0.00,,,0.00,WeatherSnoop3.0,2013-03-06 19:35:00,
2013-03-06 13:40:00,59.6,32.6,30.29,NW,319,11.0,-999.0,36,0.00,,,0.00,WeatherSnoop3.0,2013-03-06 19:40:00,
2013-03-06 13:45:00,59.6,34.0,30.29,NW,326,10.0,-999.0,38,0.00,,,0.00,WeatherSnoop3.0,2013-03-06 19:45:00,
2013-03-06 13:50:00,59.4,31.7,30.28,NW,324,12.0,-999.0,35,0.00,,,0.00,WeatherSnoop3.0,2013-03-06 19:50:00,
2013-03-06 13:55:00,59.4,32.4,30.29,NNW,327,5.0,-999.0,36,0.00,,,0.00,WeatherSnoop3.0,2013-03-06 19:55:00,
2013-03-06 14:00:00,59.4,31.0,30.28,WNW,296,2.0,-999.0,34,0.00,,,0.00,WeatherSnoop3.0,2013-03-06 20:00:00,
2013-03-06 14:05:00,59.5,31.1,30.28,NW,307,2.0,-999.0,34,0.00,,,0.00,WeatherSnoop3.0,2013-03-06 20:05:00,
2013-03-06 14:10:00,59.7,34.1,30.28,NNW,327,3.0,-999.0,38,0.00,,,0.00,WeatherSnoop3.0,2013-03-06 20:10:00,
2013-03-06 14:15:00,60.5,32.7,30.28,NW,325,4.0,-999.0,35,0.00,,,0.00,WeatherSnoop3.0,2013-03-06 20:15:00,
2013-03-06 14:20:00,60.4,31.9,30.28,NNE,13,4.0,-999.0,34,0.00,,,0.00,WeatherSnoop3.0,2013-03-06 20:20:00,
2013-03-06 14:25:00,60.6,33.5,30.28,North,360,0.0,-999.0,36,0.00,,,0.00,WeatherSnoop3.0,2013-03-06 20:25:00,
2013-03-06 14:30:00,61.2,34.0,30.28,NNW,337,0.0,-999.0,36,0.00,,,0.00,WeatherSnoop3.0,2013-03-06 20:30:00,
2013-03-06 14:35:00,61.7,33.8,30.27,NW,317,5.0,-999.0,35,0.00,,,0.00,WeatherSnoop3.0,2013-03-06 20:35:00,
2013-03-06 14:40:00,61.2,32.6,30.27,NNW,329,9.0,-999.0,34,0.00,,,0.00,WeatherSnoop3.0,2013-03-06 20:40:00,
2013-03-06 14:45:00,61.0,31.7,30.27,NNW,328,5.0,-999.0,33,0.00,,,0.00,WeatherSnoop3.0,2013-03-06 20:45:00,
2013-03-06 14:50:00,60.9,33.8,30.27,North,355,0.0,-999.0,36,0.00,,,0.00,WeatherSnoop3.0,2013-03-06 20:50:00,
2013-03-06 14:55:00,61.5,32.1,30.26,NW,304,0.0,-999.0,33,0.00,,,0.00,WeatherSnoop3.0,2013-03-06 20:55:00,
2013-03-06 15:00:00,62.0,36.1,30.26,NNW,345,3.0,-999.0,38,0.00,,,0.00,WeatherSnoop3.0,2013-03-06 21:00:00,
2013-03-06 15:05:00,61.9,36.0,30.26,North,360,5.0,-999.0,38,0.00,,,0.00,WeatherSnoop3.0,2013-03-06 21:05:00,
2013-03-06 15:10:00,61.9,31.7,30.26,NW,325,0.0,-999.0,32,0.00,,,0.00,WeatherSnoop3.0,2013-03-06 21:10:00,
2013-03-06 15:15:00,62.0,32.6,30.26,NW,323,0.0,-999.0,33,0.00,,,0.00,WeatherSnoop3.0,2013-03-06 21:15:00,
2013-03-06 15:20:00,62.2,33.5,30.26,NNW,331,5.0,-999.0,34,0.00,,,0.00,WeatherSnoop3.0,2013-03-06 21:20:00,
2013-03-06 15:25:00,62.3,32.1,30.25,WNW,302,0.0,-999.0,32,0.00,,,0.00,WeatherSnoop3.0,2013-03-06 21:25:00,
2013-03-06 15:30:00,62.2,32.0,30.25,NW,323,4.0,-999.0,32,0.00,,,0.00,WeatherSnoop3.0,2013-03-06 21:30:00,
2013-03-06 15:35:00,62.3,31.3,30.25,NNW,342,0.0,-999.0,31,0.00,,,0.00,WeatherSnoop3.0,2013-03-06 21:35:00,
2013-03-06 15:40:00,62.5,32.2,30.25,NNW,332,5.0,-999.0,32,0.00,,,0.00,WeatherSnoop3.0,2013-03-06 21:40:00,
2013-03-06 15:45:00,62.8,31.7,30.25,NNW,329,4.0,-999.0,31,0.00,,,0.00,WeatherSnoop3.0,2013-03-06 21:45:00,
2013-03-06 15:50:00,62.6,30.7,30.25,NNW,329,8.0,-999.0,30,0.00,,,0.00,WeatherSnoop3.0,2013-03-06 21:50:00,
2013-03-06 15:55:00,62.4,34.4,30.25,NNE,24,0.0,-999.0,35,0.00,,,0.00,WeatherSnoop3.0,2013-03-06 21:55:00,
2013-03-06 16:00:00,62.7,32.4,30.25,NNE,15,3.0,-999.0,32,0.00,,,0.00,WeatherSnoop3.0,2013-03-06 22:00:00,
2013-03-06 16:05:00,63.2,33.6,30.25,North,9,9.0,-999.0,33,0.00,,,0.00,WeatherSnoop3.0,2013-03-06 22:05:00,
2013-03-06 16:10:00,63.3,32.2,30.25,NNW,340,2.0,-999.0,31,0.00,,,0.00,WeatherSnoop3.0,2013-03-06 22:10:00,
2013-03-06 16:15:00,62.5,32.2,30.25,NW,322,3.0,-999.0,32,0.00,,,0.00,WeatherSnoop3.0,2013-03-06 22:15:00,
2013-03-06 16:20:00,62.3,32.8,30.25,North,355,0.0,-999.0,33,0.00,,,0.00,WeatherSnoop3.0,2013-03-06 22:20:00,
2013-03-06 16:25:00,62.5,31.5,30.24,NNW,332,3.0,-999.0,31,0.00,,,0.00,WeatherSnoop3.0,2013-03-06 22:25:00,
2013-03-06 16:30:00,62.2,31.2,30.24,NNW,332,8.0,-999.0,31,0.00,,,0.00,WeatherSnoop3.0,2013-03-06 22:30:00,
2013-03-06 16:35:00,61.9,33.2,30.24,NNW,328,4.0,-999.0,34,0.00,,,0.00,WeatherSnoop3.0,2013-03-06 22:35:00,
2013-03-06 16:40:00,61.6,31.5,30.24,NNW,336,5.0,-999.0,32,0.00,,,0.00,WeatherSnoop3.0,2013-03-06 22:40:00,
2013-03-06 16:45:00,61.3,31.2,30.24,NW,313,6.0,-999.0,32,0.00,,,0.00,WeatherSnoop3.0,2013-03-06 22:45:00,
2013-03-06 16:50:00,61.2,31.9,30.24,NNE,20,3.0,-999.0,33,0.00,,,0.00,WeatherSnoop3.0,2013-03-06 22:50:00,
2013-03-06 16:55:00,61.1,32.5,30.24,North,9,1.0,-999.0,34,0.00,,,0.00,WeatherSnoop3.0,2013-03-06 22:55:00,
2013-03-06 17:00:00,60.8,31.5,30.24,North,11,0.0,-999.0,33,0.00,,,0.00,WeatherSnoop3.0,2013-03-06 23:00:00,
2013-03-06 17:05:00,60.7,33.6,30.24,North,10,0.0,-999.0,36,0.00,,,0.00,WeatherSnoop3.0,2013-03-06 23:05:00,
2013-03-06 17:10:00,60.7,33.6,30.24,NNE,26,0.0,-999.0,36,0.00,,,0.00,WeatherSnoop3.0,2013-03-06 23:10:00,
2013-03-06 17:15:00,60.6,32.8,30.24,NNE,12,0.0,-999.0,35,0.00,,,0.00,WeatherSnoop3.0,2013-03-06 23:15:00,
2013-03-06 17:20:00,60.5,32.7,30.24,NNE,12,0.0,-999.0,35,0.00,,,0.00,WeatherSnoop3.0,2013-03-06 23:20:00,
2013-03-06 17:25:00,60.3,32.5,30.24,North,9,0.0,-999.0,35,0.00,,,0.00,WeatherSnoop3.0,2013-03-06 23:25:00,
2013-03-06 17:30:00,59.9,34.9,30.24,North,9,0.0,-999.0,39,0.00,,,0.00,WeatherSnoop3.0,2013-03-06 23:30:00,
2013-03-06 17:35:00,59.3,33.7,30.24,North,9,0.0,-999.0,38,0.00,,,0.00,WeatherSnoop3.0,2013-03-06 23:35:00,
2013-03-06 17:40:00,59.0,33.4,30.25,North,9,0.0,-999.0,38,0.00,,,0.00,WeatherSnoop3.0,2013-03-06 23:40:00,
2013-03-06 17:45:00,58.8,34.5,30.25,North,9,0.0,-999.0,40,0.00,,,0.00,WeatherSnoop3.0,2013-03-06 23:45:00,
2013-03-06 17:50:00,58.4,33.5,30.25,North,5,0.0,-999.0,39,0.00,,,0.00,WeatherSnoop3.0,2013-03-06 23:50:00,
2013-03-06 17:55:00,57.8,33.6,30.25,North,5,0.0,-999.0,40,0.00,,,0.00,WeatherSnoop3.0,2013-03-06 23:55:00,
2013-03-06 18:00:00,57.2,34.9,30.25,North,9,0.0,-999.0,43,0.00,,,0.00,WeatherSnoop3.0,2013-03-07 00:00:00,
2013-03-06 18:05:00,56.5,34.9,30.25,North,5,0.0,-999.0,44,0.00,,,0.00,WeatherSnoop3.0,2013-03-07 00:05:00,
2013-03-06 18:10:00,55.8,34.2,30.25,North,5,0.0,-999.0,44,0.00,,,0.00,WeatherSnoop3.0,2013-03-07 00:10:00,
2013-03-06 18:15:00,55.3,33.8,30.26,North,5,0.0,-999.0,44,0.00,,,0.00,WeatherSnoop3.0,2013-03-07 00:15:00,
2013-03-06 18:20:00,54.7,34.3,30.26,North,5,0.0,-999.0,46,0.00,,,0.00,WeatherSnoop3.0,2013-03-07 00:20:00,
2013-03-06 18:25:00,54.1,34.3,30.25,North,9,0.0,-999.0,47,0.00,,,0.00,WeatherSnoop3.0,2013-03-07 00:25:00,
2013-03-06 18:30:00,53.5,33.8,30.26,North,5,0.0,-999.0,47,0.00,,,0.00,WeatherSnoop3.0,2013-03-07 00:30:00,
2013-03-06 18:35:00,52.8,32.6,30.26,North,5,0.0,-999.0,46,0.00,,,0.00,WeatherSnoop3.0,2013-03-07 00:35:00,
2013-03-06 18:40:00,52.2,32.6,30.26,North,5,0.0,-999.0,47,0.00,,,0.00,WeatherSnoop3.0,2013-03-07 00:40:00,
2013-03-06 18:45:00,51.5,32.5,30.26,North,5,0.0,-999.0,48,0.00,,,0.00,WeatherSnoop3.0,2013-03-07 00:45:00,
2013-03-06 18:50:00,50.9,32.4,30.26,North,5,0.0,-999.0,49,0.00,,,0.00,WeatherSnoop3.0,2013-03-07 00:50:00,
2013-03-06 18:55:00,50.4,32.0,30.26,North,9,0.0,-999.0,49,0.00,,,0.00,WeatherSnoop3.0,2013-03-07 00:55:00,
2013-03-06 19:00:00,49.9,32.0,30.26,North,5,0.0,-999.0,50,0.00,,,0.00,WeatherSnoop3.0,2013-03-07 01:00:00,
2013-03-06 19:05:00,49.5,32.6,30.26,North,5,0.0,-999.0,52,0.00,,,0.00,WeatherSnoop3.0,2013-03-07 01:05:00,
2013-03-06 19:10:00,49.1,33.2,30.26,North,5,0.0,-999.0,54,0.00,,,0.00,WeatherSnoop3.0,2013-03-07 01:10:00,
2013-03-06 19:15:00,48.8,32.9,30.26,North,9,0.0,-999.0,54,0.00,,,0.00,WeatherSnoop3.0,2013-03-07 01:15:00,
2013-03-06 19:20:00,48.5,32.6,30.27,North,5,0.0,-999.0,54,0.00,,,0.00,WeatherSnoop3.0,2013-03-07 01:20:00,
2013-03-06 19:25:00,48.1,32.3,30.27,North,5,0.0,-999.0,54,0.00,,,0.00,WeatherSnoop3.0,2013-03-07 01:25:00,
2013-03-06 19:30:00,47.8,32.4,30.27,North,9,0.0,-999.0,55,0.00,,,0.00,WeatherSnoop3.0,2013-03-07 01:30:00,
2013-03-06 19:35:00,47.6,33.1,30.27,North,9,0.0,-999.0,57,0.00,,,0.00,WeatherSnoop3.0,2013-03-07 01:35:00,
2013-03-06 19:40:00,47.6,35.2,30.27,North,5,0.0,-999.0,62,0.00,,,0.00,WeatherSnoop3.0,2013-03-07 01:40:00,
2013-03-06 19:45:00,47.3,33.7,30.27,North,5,0.0,-999.0,59,0.00,,,0.00,WeatherSnoop3.0,2013-03-07 01:45:00,
2013-03-06 19:50:00,47.1,33.5,30.27,North,9,0.0,-999.0,59,0.00,,,0.00,WeatherSnoop3.0,2013-03-07 01:50:00,
2013-03-06 19:55:00,47.1,32.7,30.27,North,9,0.0,-999.0,57,0.00,,,0.00,WeatherSnoop3.0,2013-03-07 01:55:00,
2013-03-06 20:00:00,47.0,33.0,30.27,North,5,0.0,-999.0,58,0.00,,,0.00,WeatherSnoop3.0,2013-03-07 02:00:00,
2013-03-06 20:05:00,46.9,32.9,30.27,North,9,0.0,-999.0,58,0.00,,,0.00,WeatherSnoop3.0,2013-03-07 02:05:00,
2013-03-06 20:10:00,46.8,32.4,30.27,North,5,0.0,-999.0,57,0.00,,,0.00,WeatherSnoop3.0,2013-03-07 02:10:00,
2013-03-06 20:15:00,46.6,32.2,30.27,North,5,0.0,-999.0,57,0.00,,,0.00,WeatherSnoop3.0,2013-03-07 02:15:00,
2013-03-06 20:20:00,46.3,31.9,30.27,North,5,0.0,-999.0,57,0.00,,,0.00,WeatherSnoop3.0,2013-03-07 02:20:00,
2013-03-06 20:25:00,46.2,31.8,30.27,North,5,0.0,-999.0,57,0.00,,,0.00,WeatherSnoop3.0,2013-03-07 02:25:00,
2013-03-06 20:30:00,46.0,32.1,30.27,North,5,0.0,-999.0,58,0.00,,,0.00,WeatherSnoop3.0,2013-03-07 02:30:00,
2013-03-06 20:35:00,45.9,32.8,30.27,North,5,0.0,-999.0,60,0.00,,,0.00,WeatherSnoop3.0,2013-03-07 02:35:00,
2013-03-06 20:40:00,46.3,34.0,30.27,NNE,19,0.0,-999.0,62,0.00,,,0.00,WeatherSnoop3.0,2013-03-07 02:40:00,
2013-03-06 20:45:00,46.8,35.3,30.27,ENE,74,1.0,-999.0,64,0.00,,,0.00,WeatherSnoop3.0,2013-03-07 02:45:00,
2013-03-06 20:50:00,47.1,35.2,30.27,ENE,57,0.0,-999.0,63,0.00,,,0.00,WeatherSnoop3.0,2013-03-07 02:50:00,
2013-03-06 20:55:00,47.2,35.3,30.27,ENE,57,0.0,-999.0,63,0.00,,,0.00,WeatherSnoop3.0,2013-03-07 02:55:00,
2013-03-06 21:00:00,47.2,35.3,30.27,ENE,73,0.0,-999.0,63,0.00,,,0.00,WeatherSnoop3.0,2013-03-07 03:00:00,
2013-03-06 21:05:00,47.3,35.4,30.27,NE,34,0.0,-999.0,63,0.00,,,0.00,WeatherSnoop3.0,2013-03-07 03:05:00,
2013-03-06 21:10:00,47.2,35.3,30.27,NE,34,0.0,-999.0,63,0.00,,,0.00,WeatherSnoop3.0,2013-03-07 03:10:00,
2013-03-06 21:15:00,47.0,35.1,30.28,NNE,33,0.0,-999.0,63,0.00,,,0.00,WeatherSnoop3.0,2013-03-07 03:15:00,
2013-03-06 21:20:00,46.4,35.3,30.28,NE,34,0.0,-999.0,65,0.00,,,0.00,WeatherSnoop3.0,2013-03-07 03:20:00,
2013-03-06 21:25:00,45.8,34.7,30.28,NE,34,0.0,-999.0,65,0.00,,,0.00,WeatherSnoop3.0,2013-03-07 03:25:00,
2013-03-06 21:30:00,45.5,34.4,30.28,NE,34,0.0,-999.0,65,0.00,,,0.00,WeatherSnoop3.0,2013-03-07 03:30:00,
2013-03-06 21:35:00,45.1,34.4,30.28,NE,34,0.0,-999.0,66,0.00,,,0.00,WeatherSnoop3.0,2013-03-07 03:35:00,
2013-03-06 21:40:00,44.8,34.5,30.28,NE,34,0.0,-999.0,67,0.00,,,0.00,WeatherSnoop3.0,2013-03-07 03:40:00,
2013-03-06 21:45:00,44.7,34.0,30.28,NNE,33,0.0,-999.0,66,0.00,,,0.00,WeatherSnoop3.0,2013-03-07 03:45:00,
2013-03-06 21:50:00,44.5,33.9,30.28,NNE,33,0.0,-999.0,66,0.00,,,0.00,WeatherSnoop3.0,2013-03-07 03:50:00,
2013-03-06 21:55:00,44.5,33.5,30.28,NE,34,0.0,-999.0,65,0.00,,,0.00,WeatherSnoop3.0,2013-03-07 03:55:00,
2013-03-06 22:00:00,44.4,33.4,30.28,NE,34,0.0,-999.0,65,0.00,,,0.00,WeatherSnoop3.0,2013-03-07 04:00:00,
2013-03-06 22:05:00,44.2,33.9,30.28,NE,34,0.0,-999.0,67,0.00,,,0.00,WeatherSnoop3.0,2013-03-07 04:05:00,
2013-03-06 22:10:00,44.0,33.8,30.29,NE,34,0.0,-999.0,67,0.00,,,0.00,WeatherSnoop3.0,2013-03-07 04:10:00,
2013-03-06 22:15:00,43.8,33.9,30.28,NE,34,0.0,-999.0,68,0.00,,,0.00,WeatherSnoop3.0,2013-03-07 04:15:00,
2013-03-06 22:20:00,43.7,33.5,30.28,ENE,70,0.0,-999.0,67,0.00,,,0.00,WeatherSnoop3.0,2013-03-07 04:20:00,
2013-03-06 22:25:00,43.7,33.5,30.29,ENE,73,0.0,-999.0,67,0.00,,,0.00,WeatherSnoop3.0,2013-03-07 04:25:00,
2013-03-06 22:30:00,43.7,33.1,30.29,ENE,72,0.0,-999.0,66,0.00,,,0.00,WeatherSnoop3.0,2013-03-07 04:30:00,
2013-03-06 22:35:00,43.8,33.9,30.29,ENE,71,0.0,-999.0,68,0.00,,,0.00,WeatherSnoop3.0,2013-03-07 04:35:00,
2013-03-06 22:40:00,43.8,33.9,30.28,ENE,72,0.0,-999.0,68,0.00,,,0.00,WeatherSnoop3.0,2013-03-07 04:40:00,
2013-03-06 22:45:00,43.6,34.1,30.28,ENE,71,0.0,-999.0,69,0.00,,,0.00,WeatherSnoop3.0,2013-03-07 04:45:00,
2013-03-06 22:50:00,43.4,34.3,30.28,ENE,71,0.0,-999.0,70,0.00,,,0.00,WeatherSnoop3.0,2013-03-07 04:50:00,
2013-03-06 22:55:00,43.3,34.5,30.27,ENE,71,3.0,-999.0,71,0.00,,,0.00,WeatherSnoop3.0,2013-03-07 04:55:00,
2013-03-06 23:00:00,43.3,34.2,30.27,ENE,70,0.0,-999.0,70,0.00,,,0.00,WeatherSnoop3.0,2013-03-07 05:00:00,
2013-03-06 23:05:00,43.4,34.6,30.27,NE,44,0.0,-999.0,71,0.00,,,0.00,WeatherSnoop3.0,2013-03-07 05:05:00,
2013-03-06 23:10:00,43.4,34.6,30.27,ENE,74,0.0,-999.0,71,0.00,,,0.00,WeatherSnoop3.0,2013-03-07 05:10:00,
2013-03-06 23:15:00,43.5,34.4,30.27,ENE,60,0.0,-999.0,70,0.00,,,0.00,WeatherSnoop3.0,2013-03-07 05:15:00,
2013-03-06 23:20:00,43.6,34.1,30.27,ENE,58,0.0,-999.0,69,0.00,,,0.00,WeatherSnoop3.0,2013-03-07 05:20:00,
2013-03-06 23:25:00,43.5,34.4,30.26,ENE,57,0.0,-999.0,70,0.00,,,0.00,WeatherSnoop3.0,2013-03-07 05:25:00,
2013-03-06 23:30:00,43.6,34.5,30.26,NE,48,0.0,-999.0,70,0.00,,,0.00,WeatherSnoop3.0,2013-03-07 05:30:00,
2013-03-06 23:35:00,43.7,34.2,30.26,NE,49,5.0,-999.0,69,0.00,,,0.00,WeatherSnoop3.0,2013-03-07 05:35:00,
2013-03-06 23:40:00,44.0,34.5,30.26,ENE,64,0.0,-999.0,69,0.00,,,0.00,WeatherSnoop3.0,2013-03-07 05:40:00,
2013-03-06 23:45:00,44.1,34.6,30.26,ENE,69,0.0,-999.0,69,0.00,,,0.00,WeatherSnoop3.0,2013-03-07 05:45:00,
2013-03-06 23:50:00,44.1,34.6,30.26,East,85,0.0,-999.0,69,0.00,,,0.00,WeatherSnoop3.0,2013-03-07 05:50:00,
2013-03-06 23:55:00,44.1,35.0,30.26,NE,54,0.0,-999.0,70,0.00,,,0.00,WeatherSnoop3.0,2013-03-07 05:55:00,